Location: Newark
(42.2947°N, 5.1925°W)
Time: 23:56:06
(UTC+00:00)

N. Korean satellite - Visible Passes

Search period start: 07 December 2019 00:00
Search period end: 17 December 2019 00:00
Orbit: 456 x 506 km, 97.2° (Epoch: 06 December)

Date Brightness Start Highest point End Pass type
(mag) Time Alt. Az. Time Alt. Az. Time Alt. Az.
07 Dec 6.4 06:19:47 10° N 06:23:21 81° WNW 06:26:51 10° SSW visible
07 Dec 10.0 18:30:23 10° SW 18:32:24 14° W 18:34:27 10° WNW visible
08 Dec 7.7 05:54:29 10° NNE 05:57:54 44° E 06:01:15 10° S visible
08 Dec 9.0 18:03:36 10° SSW 18:06:49 27° W 18:10:03 10° NW visible
09 Dec 9.2 05:29:36 10° NE 05:32:21 21° E 05:35:03 10° SE visible
09 Dec 7.7 07:02:51 10° NNW 07:05:41 22° WNW 07:08:27 10° WSW visible
09 Dec 7.4 17:37:39 10° S 17:41:18 58° W 17:44:59 10° NNW visible
10 Dec 10.2 05:06:16 10° E 05:06:42 10° E 05:07:07 10° E visible
10 Dec 6.7 06:36:58 10° N 06:40:23 46° WNW 06:43:43 10° SSW visible
11 Dec 6.6 06:11:26 10° NNE 06:15:00 78° ESE 06:18:27 10° S visible
11 Dec 9.8 18:21:28 10° SW 18:24:00 17° W 18:26:32 10° NW visible
12 Dec 8.3 05:46:15 10° NNE 05:49:29 34° E 05:52:40 10° SSE visible
12 Dec 8.5 17:55:01 10° SSW 17:58:26 34° W 18:01:50 10° NNW visible
13 Dec 9.6 05:21:35 10° NE 05:23:53 17° E 05:26:11 10° SE visible
13 Dec 7.4 06:54:18 10° NNW 06:57:20 27° WNW 07:00:19 10° SW visible
13 Dec 6.9 17:29:15 10° S 17:32:57 75° W 17:36:39 10° NNW visible
14 Dec 6.4 06:28:32 10° N 06:32:00 59° WNW 06:35:24 10° SSW visible
14 Dec 10.2 18:40:18 10° WSW 18:41:12 11° W 18:42:07 10° WNW visible
15 Dec 7.0 06:03:06 10° NNE 06:06:34 59° E 06:09:58 10° S visible
15 Dec 9.4 18:12:41 10° SW 18:15:35 21° W 18:18:27 10° NW visible
16 Dec 8.7 05:38:02 10° NE 05:41:02 26° E 05:43:59 10° SSE visible
16 Dec 8.0 07:11:52 10° NNW 07:14:14 17° WNW 07:16:35 10° WSW visible
16 Dec 8.0 17:46:30 10° S 17:50:02 43° W 17:53:33 10° NNW visible
